Flag for Germany Weather past 2 weeks in Bad Neuenahr-Ahrweiler, Rhineland-Palatinate, Germany

Now
53 °F

Light rain. Overcast.


Feels Like: 52 °F
Forecast: 46 / 59 °F
Wind: 5 mph from South

Location: Bonn-Hangelar

Current Time: Oct 24, 2014 at 6:33:38 PM

Latest Report: Oct 24, 2014 at 6:00 PM


Visibility: 22 mi

Pressure: 30.07 "Hg

Humidity: 78%

Dew point: 46 °F

Location of Bad Neuenahr-AhrweilerLocation

Historic Weather in Bad Neuenahr-Ahrweiler — Graph

°F

Bad Neuenahr-Ahrweiler temperature yesterday

Maximum temperature yesterday: 54 °F (at 4:00 PM)
Minimum temperature yesterday: 46 °F (at 2:00 AM)
Average temperature yesterday: 49 °F

Past Weeks' High & Low Weather Summary

 TemperatureHumidityPressure
High72 °F (Oct 18, 5:00 PM)98% (Oct 12, 10:00 PM)30.25 "Hg (Oct 12, 10:00 PM)
Low40 °F (Oct 22, 4:00 AM)52% (Oct 14, 4:00 PM)29.55 "Hg (Oct 21, 4:00 PM)
Average56 °F81%29.92 "Hg
* Reported Oct 9 5:00 PM — Oct 24 5:00 PM, Bad Neuenahr-Ahrweiler, Weather by CustomWeather, © 2014

Note: Actual official high and low records may vary slightly from our data, if they occured in-between our weather recording intervals... More about our weather records

Advertising

Bad Neuenahr-Ahrweiler weather history for previous 24 hours

 ConditionsComfort  
Time TempWeatherWind HumidityBarometerVisibility
5:00 PM
Oct 24
54 °FOvercast.5 mph78%30.08 "Hg31 mi
4:00 PM54 °FOvercast.6 mph78%30.09 "Hg31 mi
3:00 PM54 °FOvercast.6 mph76%30.11 "Hg25 mi
2:00 PM54 °FOvercast.6 mph76%30.12 "Hg22 mi
1:00 PM53 °FOvercast.7 mph74%30.14 "Hg22 mi
12:00 PM52 °FOvercast.7 mph78%30.15 "Hg19 mi
11:00 AM51 °FOvercast.7 mph78%30.16 "Hg19 mi
10:00 AM51 °FOvercast.7 mph79%30.15 "Hg19 mi
9:00 AM49 °FPartly sunny.6 mph83%30.15 "Hg19 mi
8:00 AM49 °FPassing clouds.6 mph82%30.15 "Hg19 mi
7:00 AM50 °FOvercast.6 mph80%30.16 "Hg12 mi
6:00 AM50 °FLight rain. Overcast.6 mph87%30.17 "Hg12 mi
5:00 AM50 °FLow clouds.5 mph88%30.17 "Hg17 mi
4:00 AM50 °FOvercast.5 mph85%30.18 "Hg34 mi
3:00 AM50 °FOvercast.6 mph85%30.19 "Hg34 mi
2:00 AM50 °FOvercast.6 mph86%30.20 "Hg22 mi
1:00 AM51 °FOvercast.6 mph84%30.21 "Hg19 mi
12:00 AM51 °FOvercast.6 mph85%30.22 "Hg16 mi
11:00 PM
Oct 23
51 °FOvercast.6 mph87%30.22 "Hg15 mi
10:00 PM51 °FOvercast.6 mph86%30.22 "Hg16 mi
9:00 PM51 °FOvercast.6 mph87%30.22 "Hg12 mi
8:00 PM51 °FOvercast.5 mph88%30.21 "Hg16 mi
7:00 PM52 °FOvercast.6 mph86%30.20 "Hg16 mi
6:00 PM52 °FOvercast.6 mph83%30.20 "Hg16 mi
Weather by CustomWeather, © 2014

See weather overviewHow to use our weather pages